Weather Roundup
Issued by NWS Chicago, IL

Home | Current Version | Previous Version | Graphics & Text | Print | Product List | Glossary On
Versions: 1 2 3 4 5 6 7 8 9 10 11 12 13 14 15 16 17 18 19 20 21 22 23 24 25 26 27 28 29 30 31 32 33 34 35 36 37 38 39 40 41 42 43 44 45 46 47 48 49 50
000
NZUS59 KLOT 040522
HRRLOT

CHICAGO AREA WEATHER ROUNDUP
NATIONAL WEATHER SERVICE CHICAGO/ROMEOVILLE IL
1200 AM CDT FRI SEP 04 2015

NOTE: "FAIR" INDICATES FEW OR NO CLOUDS BELOW 12,000 FEET WITH NO
SIGNIFICANT WEATHER AND/OR OBSTRUCTIONS TO VISIBILITY.

* THESE STATIONS ARE NOT UNDER NWS QUALITY CONTROL. THEY ALSO MAY NOT
  REPORT WEATHER SUCH AS PRECIPITATION OR FOG.

ILZ005-006-012>014-019>023-040600-
NORTHEAST ILLINOIS

CITY           SKY/WX    TMP DP  RH WIND       PRES   REMARKS
OHARE          MOCLDY    71  67  87 NE8       29.96S
MIDWAY         PTCLDY    74  67  78 E9        29.96R
AURORA         PTCLDY    72  67  84 NE7       29.96R
LANSING*       CLEAR     71  67  88 NE5       29.96S
JOLIET*        MOCLDY    74  70  85 E3        29.95S
WAUKEGAN       MOCLDY    67  65  93 N3        29.97R
DUPAGE AIRPORT PTCLDY    71  65  81 NE7       29.96R
WHEELING       MOCLDY    70  67  90 NE5       29.98R
KANKAKEE*      PTCLDY    73  70  92 NE7       29.96R
MORRIS*        PTCLDY    73  69  89 NE3       29.94R FOG
LEWIS AIRPORT* PTCLDY    72  66  82 E7        29.96S
NORTHERLY IS     N/A     69  66  90 N5          N/A
$$

WIZ051-052-058>065-066-070>072-040600-
SOUTHEAST WISCONSIN

CITY           SKY/WX    TMP DP  RH WIND       PRES   REMARKS
MILWAUKEE      MOCLDY    67  63  87 N3        29.97R
KENOSHA*       MOCLDY    67  64  90 NE3       29.98R
RACINE*        CLOUDY    66  62  87 N3        29.99S
BURLINGTON     CLOUDY    67  64  89 E5        29.97S
WAUKESHA       MOCLDY    66  63  88 E3        29.99R
WEST BEND      FOG       63  61  94 CALM      29.97S VSB 3/4
$$

INZ001>003-010>013-019-020-040600-
NORTHWEST INDIANA

CITY           SKY/WX    TMP DP  RH WIND       PRES   REMARKS
GARY*          PTCLDY    73  67  84 NE6       29.97R
MICHIGAN CITY* NOT AVBL
RENSSELAER*    NOT AVBL
VALPARAISO     MOCLDY    71  67  87 VRB3      29.96S
$$

LMZ740>746-040600-
SOUTHERN LAKE MICHIGAN

STATION/POSITION TIME  SKY/WX   TEMP WIND        PRES    VSBY
                                AIR  DIR/SP/G
                 (UTC)          (F)  (DEG/KT/KT) (MB)    (MI)
HARRISON CRIB    0500            71   40/  7/  8   N/A
BURNHAM HARBOR   0500            69   10/  3/  5   N/A
CALUMET HARBOR   0500            71   30/  4/  6   N/A
BURNS HARBOR     0400            72   30/ 11/ 13 1014.9R
MICHIGAN CITY    0400            71   10/ 12/ 13   N/A
$$

ABBREVIATIONS USED IN REMARKS
   TC - TEMPERATURE IN CELSIUS
  WCI - WIND CHILL INDEX
   HX - HEAT INDEX
  VSB - VISIBILITY
$$



USA.gov is the U.S. government's official web portal to all federal, state and local government web resources and services.